Tracking 28790 objects as of 19-Apr-2024
HD Live streaming from Space Station
objects crossing your sky now

STARLINK-2301

Track STARLINK-2301 now!
10-day predictions
STARLINK-2301 is classified as:


NORAD ID: 48021
Int'l Code: 2021-024AW
Perigee: 553.5 km
Apogee: 555.2 km
Inclination: 53.1 °
Period: 95.6 minutes
Semi major axis: 6925 km
RCS: Unknown
Launch date: March 24, 2021
Source: United States (US)
Launch site: AIR FORCE EASTERN TEST RANGE (AFETR)
Your satellite tracking list
Your tracking list is empty




NASA's NSSDC Master Catalog

Two Line Element Set (TLE):
1 48021U 21024AW  24109.43217253  .00004289  00000-0  30673-3 0  9992
2 48021  53.0526 130.2929 0001263  86.6466 273.4667 15.06392172171383
Source of the keplerian elements: AFSPC